Retour au catalogue

STARLINK-36180

ActifCommunicationsVLEO
NORAD 67114·PAYLOAD·🇺🇸 United States

Lancé Dec 15, 2025 depuis Cape Canaveral Space Force Station

Loading…

Prochains Passages (prochaines 24 heures)

TLE

FraisSource: CelesTrak SupGP

Époque: Sep 14, 2026, 21:28 UTC

1 67114C 25299N   26257.89493056 -.00021666  00000+0 -78463-3 0  2572
2 67114  43.0029 180.6185 0001446 261.4082 358.6062 15.27594406    10

Suivez STARLINK-36180 en temps réel avec AllMySat

Download on the App Store